Location: Guferjoch
(46.7462°N, 8.4506°E)
Time: 11:47:12
(UTC+00:00)

Meteor 1-11 Rocket - Pass Details

Date: 14 July 2020
Orbit: 831 x 915 km, 81.2° (Epoch: 07 August)

Event Time Altitude Azimuth Distance (km) Brightness Sun altitude
Exits shadow 02:04:17 18° 203° (SSW) 1,916 4.9 -13.5°
Maximum altitude 02:08:22 68° 283° (WNW) 896 3.7 -13.1°
Drops below altitude 10° 02:13:53 10° 7° (N) 2,454 7.1 -12.5°
Sets 02:16:20 0° 10° (N) 3,396 8.0 -12.2°
